Alliance, NE

1:56 AM MDT on May 30, 2017 (GMT -0600)
Alliance Municipal

Weather History for KAIA - October, 2012

Change the Weather History Date:

Sunday, October 7, 2012

  Actual Average Record
Temperature  
Mean Temperature 37 °F 49 °F  
Max Temperature 57 °F 66 °F 88 °F (1956)
Min Temperature 17 °F 33 °F 13 °F (2000)
Degree Days  
Heating Degree Days 28 16  
Month to date heating degree days 146 101  
Since 1 July heating degree days 309 346  
Cooling Degree Days 0 0  
Month to date cooling degree days 0 0  
Year to date cooling degree days 959 563  
Moisture  
Dew Point 23 °F    
Average Humidity 62    
Maximum Humidity 96    
Minimum Humidity 27    
Precipitation  
Precipitation 0.00 in 0.04 in 0.53 in (1970)
Month to date precipitation 0.41 0.32  
Year to date precipitation 6.22 14.12  
Sea Level Pressure  
Sea Level Pressure 30.14 in    
Wind  
Wind Speed 9 mph (West)    
Max Wind Speed 23 mph    
Max Gust Speed 32 mph    
Visibility 10 miles    
Events      
T = Trace of Precipitation, MM = Missing Value Source: NWS Daily Summary

Daily Weather History Graph

Daily Weather History Graph

Search for Another Location

Airport or City:

Trip Planner

Search our weather history database for the weather conditions in past years. The results will help you decide how hot, cold, wet, or windy it might be!

Date:

Astronomy

Oct. 07, 2012 Rise Set
Actual Time 6:55 AM MDT 6:21 PM MDT
Civil Twilight 6:27 AM MDT 6:49 PM MDT
Nautical Twilight 5:55 AM MDT 7:21 PM MDT
Astronomical Twilight 5:22 AM MDT 7:54 PM MDT
Moon 11:31 PM MDT (10/7) 1:38 PM MDT (10/7)
Length of Visible Light 12h 22m
Length of Day
11h 26m
Waning Gibbous, 55% of the Moon is Illuminated
Oct 7
Waning Gibbous
Oct 8
Last Quarter
Oct 15
New
Oct 21
First Quarter
Oct 29
Full

Hourly Weather History & Observations

Time (MDT) Temp. Windchill Dew Point Humidity Pressure Visibility Wind Dir Wind Speed Gust Speed Precip Events Conditions
12:53 AM 26.1 °F 16.8 °F 23.0 °F 88% 30.31 in 10.0 mi SW 9.2 mph - N/A   Clear
1:53 AM 23.0 °F 15.8 °F 21.0 °F 92% 30.31 in 10.0 mi WSW 5.8 mph - N/A   Clear
2:53 AM 19.9 °F 11.1 °F 18.0 °F 92% 30.29 in 10.0 mi WSW 6.9 mph - N/A   Clear
3:53 AM 21.0 °F 14.6 °F 18.0 °F 88% 30.27 in 10.0 mi West 4.6 mph - N/A   Clear
4:53 AM 19.0 °F 11.1 °F 17.1 °F 92% 30.27 in 10.0 mi WSW 5.8 mph - N/A   Clear
5:53 AM 19.0 °F 13.9 °F 17.1 °F 92% 30.26 in 10.0 mi SSW 3.5 mph - N/A   Clear
6:53 AM 18.0 °F 9.8 °F 16.0 °F 92% 30.27 in 10.0 mi SW 5.8 mph - N/A   Clear
7:53 AM 23.0 °F 17.0 °F 21.0 °F 92% 30.25 in 10.0 mi West 4.6 mph - N/A   Clear
8:53 AM 30.0 °F 22.4 °F 27.0 °F 88% 30.23 in 10.0 mi West 8.1 mph - N/A   Clear
9:53 AM 36.0 °F 27.1 °F 28.9 °F 76% 30.21 in 10.0 mi West 13.8 mph - 0.01 in   Clear
10:53 AM 43.0 °F 36.0 °F 28.0 °F 56% 30.18 in 10.0 mi West 13.8 mph - N/A   Clear
11:53 AM 48.9 °F - 24.1 °F 38% 30.14 in 10.0 mi WNW 17.3 mph 20.7 mph N/A   Clear
12:53 PM 51.1 °F - 25.0 °F 36% 30.10 in 10.0 mi WNW 13.8 mph 23.0 mph N/A   Clear
1:53 PM 53.1 °F - 28.0 °F 38% 30.06 in 10.0 mi West 19.6 mph 25.3 mph N/A   Partly Cloudy
2:53 PM 55.0 °F - 25.0 °F 31% 30.04 in 10.0 mi WNW 12.7 mph 25.3 mph N/A   Clear
3:53 PM 55.9 °F - 23.0 °F 28% 30.01 in 10.0 mi WNW 16.1 mph 24.2 mph N/A   Clear
4:53 PM 55.9 °F - 23.0 °F 28% 30.01 in 10.0 mi NW 16.1 mph 25.3 mph N/A   Clear
5:53 PM 53.1 °F - 25.0 °F 34% 30.02 in 10.0 mi WNW 9.2 mph - N/A   Clear
6:53 PM 39.0 °F 35.7 °F 26.1 °F 60% 30.06 in 10.0 mi WNW 4.6 mph - N/A   Clear
7:53 PM 33.1 °F 27.7 °F 25.0 °F 72% 30.07 in 10.0 mi WSW 5.8 mph - N/A   Clear
8:53 PM 30.0 °F 26.5 °F 25.0 °F 82% 30.06 in 10.0 mi SW 3.5 mph - N/A   Clear
9:53 PM 33.1 °F 28.7 °F 26.1 °F 75% 30.02 in 10.0 mi West 4.6 mph - N/A   Clear
10:53 PM 30.0 °F 23.2 °F 25.0 °F 82% 30.01 in 10.0 mi West 6.9 mph - N/A   Clear
11:53 PM 32.0 °F 27.5 °F 25.0 °F 75% 29.97 in 10.0 mi West 4.6 mph - N/A   Clear